Weather History for K0J4 - October, 2013

Change the Weather History Date:

Tuesday, October 1, 2013

  Actual Average (KCEW) Record (KCEW)
Temperature  
Mean Temperature 75 °F -  
Max Temperature 84 °F 84 °F 92 °F (1981)
Min Temperature 66 °F 60 °F 44 °F (2001)
Cooling Degree Days 10    
Growing Degree Days 25 (Base 50)    
Moisture  
Dew Point 66 °F    
Average Humidity 76    
Maximum Humidity 94    
Minimum Humidity 51    
Precipitation  
Precipitation 0.00 in - - ()
Sea Level Pressure  
Sea Level Pressure 30.07 in    
Wind  
Wind Speed 3 mph (East)    
Max Wind Speed 10 mph    
Max Gust Speed -    
Visibility 10 miles    
Events      
Averages and records for this station are not official NWS values.
T = Trace of Precipitation, MM = Missing Value Source: NWS Daily Summary

Daily Weather History Graph

Daily Weather History Graph

Search for Another Location

Airport or City:

Trip Planner

Search our weather history database for the weather conditions in past years. The results will help you decide how hot, cold, wet, or windy it might be!

Date:

Astronomy

Oct. 01, 2013 Rise Set
Actual Time 6:39 AM CDT 6:30 PM CDT
Civil Twilight 6:14 AM CDT 6:54 PM CDT
Nautical Twilight 5:46 AM CDT 7:22 PM CDT
Astronomical Twilight 5:18 AM CDT 7:50 PM CDT
Moon 3:24 AM CDT (10/1) 4:24 PM CDT (10/1)
Length of Visible Light 12h 39m
Length of Day
11h 51m
Waning Crescent, 12% of the Moon is Illuminated
Oct 1
Waning Crescent
Oct 4
New
Oct 11
First Quarter
Oct 18
Full
Oct 26
Last Quarter

Hourly Weather History & Observations

Time (CDT) Temp. Heat Index Dew Point Humidity Pressure Visibility Wind Dir Wind Speed Gust Speed Precip Events Conditions
12:58 AM 68.0 °F - 66.0 °F 93% 30.04 in 10.0 mi Calm Calm - N/A   Partly Cloudy
1:58 AM 68.0 °F - 66.0 °F 93% 30.04 in 10.0 mi East 3.5 mph - N/A   Overcast
2:58 AM 68.0 °F - 64.9 °F 90% 30.03 in 10.0 mi East 3.5 mph - N/A   Scattered Clouds
3:56 AM 66.2 °F - 64.4 °F 94% 30.05 in 10.0 mi Calm Calm - N/A   Overcast
3:58 AM 66.9 °F - 64.0 °F 90% 30.04 in 10.0 mi Calm Calm - N/A   Overcast
4:10 AM 66.2 °F - 64.4 °F 94% 30.05 in 10.0 mi East 3.5 mph - N/A   Overcast
4:58 AM 66.9 °F - 64.0 °F 90% 30.05 in 10.0 mi Calm Calm - N/A   Overcast
5:58 AM 66.9 °F - 64.0 °F 90% 30.06 in 10.0 mi ENE 4.6 mph - N/A   Overcast
6:58 AM 66.9 °F - 63.0 °F 87% 30.08 in 10.0 mi East 6.9 mph - N/A   Overcast
7:27 AM 68.0 °F - 64.4 °F 88% 30.10 in 10.0 mi NE 5.8 mph - N/A   Overcast
7:58 AM 68.0 °F - 64.0 °F 87% 30.09 in 10.0 mi East 5.8 mph - N/A   Overcast
8:13 AM 69.8 °F - 64.4 °F 83% 30.11 in 10.0 mi East 4.6 mph - N/A   Overcast
8:19 AM 69.8 °F - 64.4 °F 83% 30.11 in 10.0 mi East 6.9 mph - N/A   Overcast
8:58 AM 71.1 °F - 64.9 °F 81% 30.12 in 10.0 mi Variable 3.5 mph - N/A   Overcast
9:58 AM 73.9 °F - 66.0 °F 76% 30.11 in 10.0 mi Variable 4.6 mph - N/A   Overcast
10:58 AM 79.0 °F - 68.0 °F 69% 30.10 in 10.0 mi Variable 5.8 mph - N/A   Mostly Cloudy
11:37 AM 80.6 °F 83.2 °F 68.0 °F 65% 30.10 in 10.0 mi Variable 4.6 mph - N/A   Mostly Cloudy
11:56 AM 82.4 °F 85.4 °F 68.0 °F 62% 30.10 in 10.0 mi SE 5.8 mph - N/A   Scattered Clouds
11:58 AM 82.0 °F 84.9 °F 68.0 °F 62% 30.09 in 10.0 mi SE 3.5 mph - N/A   Scattered Clouds
12:04 PM 84.2 °F 87.3 °F 68.0 °F 58% 30.09 in 10.0 mi NE 4.6 mph - N/A   Mostly Cloudy
12:16 PM 80.6 °F 82.7 °F 66.2 °F 61% 30.09 in 10.0 mi East 4.6 mph - N/A   Scattered Clouds
12:58 PM 84.0 °F 86.3 °F 66.0 °F 55% 30.06 in 10.0 mi NE 10.4 mph - N/A   Mostly Cloudy
1:58 PM 82.9 °F 85.0 °F 66.0 °F 56% 30.04 in 10.0 mi ENE 6.9 mph - N/A   Overcast
2:58 PM 84.9 °F 86.6 °F 64.9 °F 51% 30.03 in 10.0 mi Variable 4.6 mph - N/A   Mostly Cloudy
3:58 PM 82.9 °F 85.0 °F 66.0 °F 56% 30.02 in 10.0 mi East 5.8 mph - N/A   Partly Cloudy
4:58 PM 82.9 °F 85.0 °F 66.0 °F 56% 30.02 in 10.0 mi ENE 5.8 mph - N/A   Clear
5:58 PM 80.1 °F 82.7 °F 68.0 °F 67% 30.03 in 10.0 mi Calm Calm - N/A   Clear
6:58 PM 73.9 °F - 70.0 °F 87% 30.04 in 10.0 mi Calm Calm - N/A   Clear
7:58 PM 73.9 °F - 68.0 °F 82% 30.06 in 10.0 mi Calm Calm - N/A   Clear
8:58 PM 75.0 °F - 66.9 °F 76% 30.08 in 10.0 mi ENE 3.5 mph - N/A   Mostly Cloudy
9:58 PM 73.9 °F - 66.9 °F 79% 30.09 in 10.0 mi East 4.6 mph - N/A   Partly Cloudy
10:58 PM 73.9 °F - 66.9 °F 79% 30.08 in 10.0 mi East 3.5 mph - N/A   Scattered Clouds
11:58 PM 72.0 °F - 66.9 °F 84% 30.08 in 10.0 mi Calm Calm - N/A   Clear